EW5461 Weather Reports


Display with metric or nautical units.
time (UTC)temp
F
wind
direction
speed
MPH
gust
MPH
rain 1hr
in
rain 24hr
in
rain mn
in
humidity
%
barometer
mb
20260509070039 69 191 5.0 8.0 0.00 0.02 0.00 91 1009.4
20260509064546 69 200 4.0 9.0 0.00 0.02 0.00 91 1010.1
20260509063042 69 225 4.0 8.0 0.00 0.02 0.00 91 1010.4
20260509061532 68 346 1.0 3.0 0.00 0.02 0.00 90 1010.2
20260509060033 69 346 1.0 3.0 0.00 0.02 0.00 89 1010.3
20260509054529 69 360 0.0 3.0 0.00 0.02 0.00 89 1009.8
20260509053028 69 360 0.0 5.0 0.00 0.02 0.00 88 1010.1
20260509051534 69 360 2.0 5.0 0.00 0.02 0.00 88 1010.3
20260509050024 70 188 0.0 2.0 0.00 0.02 0.00 86 1009.8
20260509044523 70 176 0.0 5.0 0.00 0.02 0.02 86 1008.9
20260509043023 71 156 1.0 7.0 0.00 0.02 0.02 86 1008.9
20260509041522 71 78 0.0 2.0 0.00 0.02 0.02 85 1008.9
20260509040021 71 78 0.0 2.0 0.00 0.02 0.02 85 1009.0
20260509034538 71 78 0.0 2.0 0.00 0.02 0.02 85 1009.1
20260509033020 71 78 0.0 4.0 0.00 0.02 0.02 84 1008.8
20260509031520 72 113 0.0 5.0 0.00 0.02 0.02 83 1008.2
20260509030022 72 48 2.0 8.0 0.00 0.02 0.02 83 1007.3
20260509024519 72 109 1.0 7.0 0.00 0.02 0.02 82 1007.5
20260509023018 72 157 2.0 7.0 0.00 0.02 0.02 81 1007.0
20260509021520 72 180 1.0 8.0 0.00 0.02 0.02 80 1006.8
20260509020016 73 109 2.0 7.0 0.00 0.02 0.02 80 1006.5
20260509014515 73 161 1.0 5.0 0.00 0.02 0.02 80 1007.1
20260509013016 73 161 1.0 5.0 0.00 0.02 0.02 79 1007.3
20260509011513 73 178 2.0 7.0 0.00 0.02 0.02 79 1007.2
20260509010015 73 160 0.0 7.0 0.00 0.02 0.02 79 1007.0
20260509004511 73 181 2.0 8.0 0.00 0.02 0.02 79 1006.8
20260509003011 73 178 3.0 7.0 0.00 0.02 0.02 78 1006.8
20260509001509 73 175 4.0 12.0 0.00 0.02 0.02 79 1006.7
20260509000007 73 179 5.0 10.0 0.00 0.02 0.02 78 1006.9
20260508234507 73 186 4.0 9.0 0.00 0.02 0.02 77 1007.0
20260508233004 73 142 4.0 9.0 0.00 0.02 0.02 77 1007.0
20260508231507 73 175 3.0 7.0 0.00 0.02 0.02 76 1007.1
20260508230003 74 200 5.0 8.0 0.00 0.02 0.02 74 1007.2
20260508224505 74 134 1.0 8.0 0.00 0.02 0.02 73 1007.2
20260508223001 75 144 3.0 9.0 0.00 0.02 0.02 73 1007.2
20260508221604 75 165 3.0 10.0 0.00 0.02 0.02 71 1007.3
20260508220101 75 165 6.0 16.0 0.00 0.02 0.02 71 1007.2
20260508214608 76 99 1.0 16.0 0.00 0.02 0.02 71 1007.3
20260508213055 76 124 7.0 14.0 0.00 0.02 0.02 68 1007.5
20260508211555 77 113 4.0 10.0 0.00 0.02 0.02 65 1007.8
20260508210053 77 129 1.0 9.0 0.00 0.02 0.02 68 1008.0
20260508204547 75 182 3.0 10.0 0.00 0.02 0.02 68 1008.3
20260508203044 75 151 0.0 4.0 0.00 0.02 0.02 68 1008.3
20260508201540 73 172 1.0 10.0 0.00 0.02 0.02 71 1008.9
20260508200043 71 151 6.0 10.0 0.00 0.02 0.02 70 1009.4
20260508194535 71 157 5.0 9.0 0.00 0.02 0.02 71 1010.0
20260508193043 72 154 6.0 12.0 0.00 0.02 0.02 69 1009.9
20260508191546 73 176 4.0 12.0 0.00 0.02 0.02 69 1009.8
20260508190049 72 192 5.0 9.0 0.00 0.02 0.02 69 1009.9
20260508184535 72 171 4.0 11.0 0.00 0.02 0.02 70 1010.1
20260508183037 73 154 2.0 9.0 0.00 0.02 0.02 68 1010.2
20260508181528 73 216 3.0 9.0 0.00 0.02 0.02 70 1010.3
20260508180025 72 198 2.0 8.0 0.00 0.02 0.02 69 1010.6
20260508174522 71 144 4.0 9.0 0.00 0.02 0.02 68 1010.9
20260508173020 71 148 3.0 9.0 0.00 0.02 0.02 69 1011.3
20260508171518 71 162 4.0 9.0 0.00 0.02 0.02 66 1011.5
20260508170018 71 113 3.0 6.0 0.00 0.02 0.02 68 1011.5
20260508164521 71 121 0.0 6.0 0.00 0.02 0.02 68 1011.8
20260508163014 70 168 2.0 8.0 0.00 0.02 0.02 69 1012.2
20260508161511 70 137 4.0 10.0 0.00 0.02 0.02 70 1012.2
20260508160005 70 25 1.0 6.0 0.00 0.02 0.02 72 1012.3
20260508154504 69 152 5.0 10.0 0.00 0.02 0.02 72 1012.6
20260508153001 69 103 1.0 6.0 0.00 0.02 0.02 70 1012.7
20260508151602 68 112 0.0 4.0 0.00 0.02 0.02 71 1012.8
20260508150055 67 94 3.0 8.0 0.00 0.02 0.02 72 1013.1
20260508144554 66 197 4.0 9.0 0.00 0.02 0.02 71 1013.1
20260508143055 66 150 5.0 9.0 0.00 0.02 0.02 71 1013.2
20260508141600 65 166 5.0 9.0 0.00 0.02 0.02 73 1013.3
20260508140045 64 178 5.0 10.0 0.00 0.02 0.02 75 1013.4
20260508134543 63 167 2.0 10.0 0.00 0.02 0.02 78 1013.2
20260508133039 62 161 2.0 6.0 0.00 0.02 0.02 82 1013.5
20260508131546 61 92 1.0 4.0 0.00 0.02 0.02 87 1013.3
20260508130040 60 168 0.0 1.0 0.00 0.02 0.02 89 1013.3
20260508124539 60 168 0.0 2.0 0.00 0.02 0.02 89 1013.3
20260508123037 60 168 0.0 1.0 0.02 0.02 0.02 89 1013.7
20260508121536 60 168 0.0 3.0 0.02 0.02 0.02 88 1013.6
20260508120038 60 168 0.0 1.0 0.02 0.02 0.02 87 1013.4
20260508114536 61 168 0.0 3.0 0.02 0.02 0.02 85 1013.5
20260508113030 61 169 3.0 6.0 0.00 0.00 0.00 82 1014.1
20260508111530 61 163 2.0 6.0 0.00 0.00 0.00 82 1013.5
20260508110032 61 107 0.0 2.0 0.00 0.00 0.00 82 1013.3
20260508104530 61 107 0.0 2.0 0.00 0.00 0.00 81 1013.4
20260508103033 62 107 0.0 0.0 0.00 0.00 0.00 81 1013.3
20260508101526 62 107 0.0 2.0 0.00 0.00 0.00 80 1013.1
20260508100025 62 107 1.0 3.0 0.00 0.00 0.00 80 1013.5
20260508094525 62 107 0.0 0.0 0.00 0.00 0.00 80 1013.1
20260508093034 62 107 0.0 0.0 0.00 0.00 0.00 80 1013.0
20260508091531 62 107 0.0 0.0 0.00 0.00 0.00 81 1013.1
20260508090021 62 107 0.0 0.0 0.00 0.00 0.00 81 1013.1
20260508084520 62 107 0.0 0.0 0.00 0.00 0.00 80 1013.3
20260508083018 62 107 0.0 0.0 0.00 0.00 0.00 79 1013.2
20260508081517 62 107 0.0 0.0 0.00 0.00 0.00 79 1013.3
20260508080016 62 107 0.0 0.0 0.00 0.00 0.00 79 1013.9
20260508074520 62 107 0.0 2.0 0.00 0.00 0.00 80 1013.4
20260508073014 62 162 0.0 1.0 0.00 0.00 0.00 81 1013.7
20260508071610 62 162 0.0 5.0 0.00 0.00 0.00 81 1014.5